USA 134

Last updated on Sat Mar 14 2026 00:02:52 GMT+0000 (Coordinated Universal Time)

1 25019U 97065A 26072.42822526 -.00000058 00000+0 00000+0 0 9994 2 25019 12.6706 22.4280 0006463 313.0257 237.5821 1.00270290 31990
UTC large
Height (km)
Speed (km/s)
/
Latitude / Longitude
Inclination (degrees)
Orbital Period (minutes)
Azimuth
Elevation
Range (km)
Doppler Factor

Next 0 passes for location: London (51.5072 / 0.1276)

Sorry there are no passes over London.